Location: Rochester
(43.1610°N, 77.6109°W)
Time: 09:47:45
(UTC-05:00)

CUTE 1.7 + AOD 2 - Pass Details

Date: 25 October 2021
Orbit: 592 x 611 km, 97.6° (Epoch: 04 December)

Event Time Altitude Azimuth Distance (km) Brightness Sun altitude
Rises 04:09:12 0° 33° (NNE) 2,883 ? -38.0°
Reaches altitude 10° 04:12:30 10° 61° (ENE) 1,970 ? -37.4°
Maximum altitude 04:14:35 13° 90° (E) 1,757 ? -37.1°
Enters shadow 04:14:58 13° 96° (E) 1,764 ? -37.0°
